FW5426 Weather Reports


Display with metric or nautical units.
time (UTC)temp
F
wind
direction
speed
MPH
gust
MPH
rain 1hr
in
rain 24hr
in
rain mn
in
humidity
%
barometer
mb
20260510064531 82 268 8.0 15.0 0.00 0.00 0.00 10 1013.2
20260510064031 83 281 8.0 15.0 0.00 0.00 0.00 10 1013.3
20260510063531 83 295 8.0 14.0 0.00 0.00 0.00 10 1013.3
20260510063511 83 282 9.0 17.0 0.00 0.00 0.00 10 1013.2
20260510062755 84 279 8.0 17.0 0.00 0.00 0.00 9 1013.3
20260510062031 83 318 7.0 17.0 0.00 0.00 0.00 10 1013.3
20260510061531 83 283 7.0 17.0 0.00 0.00 0.00 10 1013.3
20260510061030 83 305 6.0 12.0 0.00 0.00 0.00 10 1013.3
20260510060531 83 280 7.0 13.0 0.00 0.00 0.00 9 1013.2
20260510060030 83 296 7.0 15.0 0.00 0.00 0.00 9 1013.1
20260510055756 83 285 7.0 12.0 0.00 0.00 0.00 9 1013.1
20260510055031 83 284 8.0 13.0 0.00 0.00 0.00 9 1012.9
20260510054533 83 279 7.0 13.0 0.00 0.00 0.00 9 1012.9
20260510054030 83 287 6.0 12.0 0.00 0.00 0.00 9 1013.1
20260510053531 83 277 5.0 12.0 0.00 0.00 0.00 9 1012.9
20260510053031 83 300 6.0 12.0 0.00 0.00 0.00 9 1013.1
20260510052531 83 299 6.0 12.0 0.00 0.00 0.00 9 1012.9
20260510052251 83 308 6.0 12.0 0.00 0.00 0.00 9 1012.9
20260510051530 83 304 6.0 12.0 0.00 0.00 0.00 9 1012.9
20260510051031 83 285 5.0 11.0 0.00 0.00 0.00 9 1012.9
20260510050755 83 319 5.0 10.0 0.00 0.00 0.00 9 1012.9
20260510050030 83 292 5.0 10.0 0.00 0.00 0.00 9 1013.1
20260510045531 84 286 5.0 11.0 0.00 0.00 0.00 9 1013.1
20260510045031 84 291 6.0 12.0 0.00 0.00 0.00 8 1013.1
20260510044531 84 292 7.0 12.0 0.00 0.00 0.00 8 1013.1
20260510044515 85 281 7.0 12.0 0.00 0.00 0.00 8 1013.1
20260510043530 85 279 7.0 14.0 0.00 0.00 0.00 8 1013.1
20260510043254 85 305 8.0 14.0 0.00 0.00 0.00 8 1013.1
20260510042531 85 301 8.0 13.0 0.00 0.00 0.00 8 1013.2
20260510042031 86 277 8.0 15.0 0.00 0.00 0.00 7 1013.1
20260510041531 86 280 8.0 15.0 0.00 0.00 0.00 7 1013.1
20260510041030 87 289 9.0 20.0 0.00 0.00 0.00 7 1012.9
20260510040757 87 279 10.0 20.0 0.00 0.00 0.00 7 1012.9
20260510040021 86 267 9.0 17.0 0.00 0.00 0.00 7 1012.8
20260510035514 86 302 8.0 16.0 0.00 0.00 0.00 7 1012.7
20260510035013 86 323 9.0 19.0 0.00 0.00 0.00 7 1012.7
20260510034734 87 297 10.0 19.0 0.00 0.00 0.00 7 1012.7
20260510034011 87 277 9.0 18.0 0.00 0.00 0.00 7 1012.7
20260510033731 87 271 8.0 16.0 0.00 0.00 0.00 7 1012.7
20260510033010 87 284 8.0 15.0 0.00 0.00 0.00 7 1012.7
20260510032735 87 283 7.0 14.0 0.00 0.00 0.00 8 1012.6
20260510032011 86 319 7.0 15.0 0.00 0.00 0.00 8 1012.6
20260510031511 87 275 8.0 15.0 0.00 0.00 0.00 8 1012.6
20260510031011 87 268 8.0 14.0 0.00 0.00 0.00 8 1012.6
20260510030511 87 254 8.0 14.0 0.00 0.00 0.00 8 1012.6
20260510030010 88 250 8.0 16.0 0.00 0.00 0.00 7 1012.5
20260510025510 88 250 7.0 16.0 0.00 0.00 0.00 7 1012.4
20260510025011 87 264 6.0 15.0 0.00 0.00 0.00 8 1012.2
20260510024510 88 275 8.0 17.0 0.00 0.00 0.00 8 1012.2
20260510024010 88 207 7.0 17.0 0.00 0.00 0.00 8 1012.0
20260510023510 87 238 5.0 10.0 0.00 0.00 0.00 8 1012.0
20260510023010 87 284 4.0 9.0 0.00 0.00 0.00 8 1011.9
20260510022507 87 232 3.0 8.0 0.00 0.00 0.00 8 1011.9
20260510022006 87 229 3.0 8.0 0.00 0.00 0.00 8 1011.7
20260510021507 87 253 3.0 7.0 0.00 0.00 0.00 9 1011.7
20260510021007 87 242 3.0 7.0 0.00 0.00 0.00 9 1011.6
20260510020505 88 231 3.0 7.0 0.00 0.00 0.00 9 1011.7
20260510020449 88 222 3.0 6.0 0.00 0.00 0.00 8 1011.7
20260510015502 88 223 4.0 8.0 0.00 0.00 0.00 8 1011.6
20260510015224 88 243 4.0 8.0 0.00 0.00 0.00 8 1011.6
20260510014502 89 250 4.0 7.0 0.00 0.00 0.00 8 1011.5
20260510014004 89 220 4.0 8.0 0.00 0.00 0.00 8 1011.5
20260510013503 89 218 4.0 8.0 0.00 0.00 0.00 7 1011.4
20260510013006 89 233 4.0 8.0 0.00 0.00 0.00 7 1011.3
20260510012459 90 268 3.0 8.0 0.00 0.00 0.00 7 1011.4
20260510011958 90 284 1.0 8.0 0.00 0.00 0.00 7 1011.3
20260510011458 91 246 1.0 6.0 0.00 0.00 0.00 6 1011.3
20260510010958 91 161 2.0 7.0 0.00 0.00 0.00 6 1011.4
20260510010458 91 144 2.0 7.0 0.00 0.00 0.00 6 1011.3
20260510010000 91 231 3.0 6.0 0.00 0.00 0.00 6 1011.3
20260510005458 91 242 6.0 11.0 0.00 0.00 0.00 6 1011.4
20260510004958 91 204 7.0 14.0 0.00 0.00 0.00 6 1011.4
20260510004945 91 221 7.0 14.0 0.00 0.00 0.00 6 1011.4
20260510003955 91 177 6.0 12.0 0.00 0.00 0.00 6 1011.4
20260510003455 92 244 5.0 12.0 0.00 0.00 0.00 6 1011.4
20260510002954 92 232 5.0 9.0 0.00 0.00 0.00 6 1011.4
20260510002454 92 329 5.0 10.0 0.00 0.00 0.00 6 1011.5
20260510001953 92 293 5.0 13.0 0.00 0.00 0.00 6 1011.5
20260510001453 92 296 7.0 13.0 0.00 0.00 0.00 6 1011.5
20260510000958 92 200 7.0 12.0 0.00 0.00 0.00 6 1011.4
20260510000455 92 221 6.0 12.0 0.00 0.00 0.00 6 1011.6
20260509235955 92 237 6.0 12.0 0.00 0.00 0.00 6 1011.6
20260509235447 92 225 8.0 15.0 0.00 0.00 0.00 6 1011.7
20260509234942 93 229 6.0 15.0 0.00 0.00 0.00 6 1011.6
20260509234436 92 327 4.0 11.0 0.00 0.00 0.00 6 1011.6
20260509233936 92 268 6.0 13.0 0.00 0.00 0.00 6 1011.8
20260509233436 92 219 5.0 13.0 0.00 0.00 0.00 6 1011.7
20260509232936 93 158 4.0 10.0 0.00 0.00 0.00 6 1011.8
20260509232434 92 290 4.0 10.0 0.00 0.00 0.00 6 1011.8
20260509231932 92 163 6.0 15.0 0.00 0.00 0.00 6 1011.9
20260509231432 92 205 8.0 15.0 0.00 0.00 0.00 6 1011.9
20260509230932 92 310 7.0 15.0 0.00 0.00 0.00 6 1011.9
20260509230431 93 16 7.0 14.0 0.00 0.00 0.00 6 1011.9
20260509225932 93 212 7.0 14.0 0.00 0.00 0.00 6 1012.0
20260509225432 93 318 7.0 13.0 0.00 0.00 0.00 6 1012.0
20260509225411 93 293 9.0 17.0 0.00 0.00 0.00 6 1012.0
20260509224432 93 311 8.0 17.0 0.00 0.00 0.00 6 1012.0
20260509223932 92 244 4.0 16.0 0.00 0.00 0.00 6 1012.0
20260509223655 92 320 3.0 7.0 0.00 0.00 0.00 6 1012.2
20260509222931 92 5 3.0 12.0 0.00 0.00 0.00 6 1012.2
20260509222425 93 234 2.0 12.0 0.00 0.00 0.00 6 1012.4
20260509222143 92 65 3.0 9.0 0.00 0.00 0.00 7 1012.4
20260509221413 92 277 3.0 9.0 0.00 0.00 0.00 6 1012.4
20260509220908 92 277 4.0 11.0 0.00 0.00 0.00 6 1012.5
20260509220403 92 229 7.0 15.0 0.00 0.00 0.00 6 1012.6
20260509215904 92 328 8.0 16.0 0.00 0.00 0.00 7 1012.7
20260509215404 92 258 6.0 16.0 0.00 0.00 0.00 7 1012.6
20260509214903 92 302 6.0 12.0 0.00 0.00 0.00 7 1012.6
20260509214403 92 5 7.0 15.0 0.00 0.00 0.00 6 1012.8
20260509214123 92 307 6.0 15.0 0.00 0.00 0.00 6 1012.9
20260509213405 92 200 5.0 13.0 0.00 0.00 0.00 6 1013.2
20260509212904 92 147 6.0 15.0 0.00 0.00 0.00 6 1013.3
20260509212404 92 281 10.0 16.0 0.00 0.00 0.00 6 1013.4
20260509211903 92 234 9.0 17.0 0.00 0.00 0.00 6 1013.4
20260509211403 93 254 8.0 17.0 0.00 0.00 0.00 7 1013.5
20260509210904 92 319 8.0 14.0 0.00 0.00 0.00 6 1013.5
20260509210627 91 242 7.0 14.0 0.00 0.00 0.00 7 1013.6
20260509205903 91 200 6.0 13.0 0.00 0.00 0.00 7 1013.7
20260509205403 91 184 5.0 10.0 0.00 0.00 0.00 7 1013.7
20260509204903 92 197 6.0 13.0 0.00 0.00 0.00 7 1013.7
20260509204403 92 261 7.0 13.0 0.00 0.00 0.00 7 1013.8
20260509203901 92 290 8.0 14.0 0.00 0.00 0.00 7 1014.0
20260509203356 91 297 6.0 14.0 0.00 0.00 0.00 7 1014.1
20260509202849 91 339 7.0 21.0 0.00 0.00 0.00 8 1014.1
20260509202343 91 326 8.0 21.0 0.00 0.00 0.00 7 1014.2
20260509202058 91 232 8.0 15.0 0.00 0.00 0.00 7 1014.2
20260509201340 91 229 7.0 13.0 0.00 0.00 0.00 7 1014.2
20260509200840 92 302 4.0 11.0 0.00 0.00 0.00 7 1014.3
20260509200340 92 42 4.0 8.0 0.00 0.00 0.00 7 1014.3
20260509195840 91 135 5.0 10.0 0.00 0.00 0.00 8 1014.4
20260509195602 91 175 6.0 14.0 0.00 0.00 0.00 8 1014.4
20260509194838 90 207 5.0 14.0 0.00 0.00 0.00 8 1014.5
20260509194601 90 140 4.0 12.0 0.00 0.00 0.00 10 1014.5
20260509193835 89 126 5.0 12.0 0.00 0.00 0.00 10 1014.6
20260509193333 90 75 5.0 12.0 0.00 0.00 0.00 10 1014.7
20260509192834 90 200 4.0 9.0 0.00 0.00 0.00 11 1014.9
20260509192333 89 116 4.0 9.0 0.00 0.00 0.00 12 1015.0
20260509191832 89 172 4.0 11.0 0.00 0.00 0.00 11 1015.1
20260509191331 89 175 5.0 13.0 0.00 0.00 0.00 12 1015.1
20260509190831 87 194 6.0 13.0 0.00 0.00 0.00 12 1015.1
20260509190331 87 178 6.0 14.0 0.00 0.00 0.00 13 1015.2
20260509190311 87 183 6.0 14.0 0.00 0.00 0.00 13 1015.2
20260509185552 87 163 6.0 12.0 0.00 0.00 0.00 13 1015.3
20260509184830 87 198 5.0 12.0 0.00 0.00 0.00 13 1015.4
20260509184325 86 152 5.0 10.0 0.00 0.00 0.00 14 1015.6
20260509183819 85 157 5.0 10.0 0.00 0.00 0.00 14 1015.8
20260509183313 85 158 6.0 11.0 0.00 0.00 0.00 14 1015.8
20260509182810 85 220 5.0 11.0 0.00 0.00 0.00 13 1015.8
20260509182310 85 184 6.0 10.0 0.00 0.00 0.00 14 1015.9
20260509181809 85 148 6.0 12.0 0.00 0.00 0.00 15 1015.9
20260509181310 84 148 5.0 12.0 0.00 0.00 0.00 14 1016.0
20260509180809 83 147 5.0 11.0 0.00 0.00 0.00 14 1016.0
20260509180309 83 216 5.0 11.0 0.00 0.00 0.00 15 1016.1
20260509175812 83 59 5.0 12.0 0.00 0.00 0.00 15 1016.1
20260509175310 83 163 5.0 12.0 0.00 0.00 0.00 15 1016.2
20260509175032 83 153 4.0 11.0 0.00 0.00 0.00 15 1016.2
20260509174309 82 207 4.0 11.0 0.00 0.00 0.00 16 1016.2
20260509173810 82 188 3.0 10.0 0.00 0.00 0.00 16 1016.4
20260509173536 81 111 3.0 8.0 0.00 0.00 0.00 17 1016.4
20260509172809 80 227 4.0 8.0 0.00 0.00 0.00 17 1016.4
20260509172309 81 213 4.0 9.0 0.00 0.00 0.00 17 1016.4
20260509171811 80 163 4.0 9.0 0.00 0.00 0.00 18 1016.5
20260509171309 80 200 3.0 8.0 0.00 0.00 0.00 18 1016.7
20260509170809 80 174 3.0 8.0 0.00 0.00 0.00 19 1016.5
20260509170309 79 126 4.0 8.0 0.00 0.00 0.00 19 1016.5
20260509165810 79 225 3.0 7.0 0.00 0.00 0.00 20 1016.5
20260509165309 78 178 3.0 7.0 0.00 0.00 0.00 21 1016.7
20260509164809 78 205 3.0 7.0 0.00 0.00 0.00 21 1016.7
20260509164309 78 226 3.0 7.0 0.00 0.00 0.00 21 1016.5
20260509163810 77 130 4.0 9.0 0.00 0.00 0.00 21 1016.5
20260509163309 76 193 4.0 9.0 0.00 0.00 0.00 22 1016.4
20260509163034 76 187 4.0 8.0 0.00 0.00 0.00 22 1016.4
20260509162307 76 284 4.0 9.0 0.00 0.00 0.00 23 1016.3
20260509162023 76 165 3.0 9.0 0.00 0.00 0.00 24 1016.4
20260509161304 74 133 3.0 7.0 0.00 0.00 0.00 24 1016.4
20260509160804 74 201 4.0 6.0 0.00 0.00 0.00 25 1016.4
20260509160742 74 201 4.0 8.0 0.00 0.00 0.00 25 1016.4
20260509155804 74 163 4.0 8.0 0.00 0.00 0.00 25 1016.3
20260509155306 73 236 5.0 8.0 0.00 0.00 0.00 25 1016.3
20260509154804 73 140 4.0 8.0 0.00 0.00 0.00 25 1016.4
20260509154303 73 178 4.0 9.0 0.00 0.00 0.00 25 1016.4
20260509153803 73 202 4.0 9.0 0.00 0.00 0.00 25 1016.4
20260509153526 72 227 4.0 7.0 0.00 0.00 0.00 26 1016.5
20260509152804 72 128 3.0 7.0 0.00 0.00 0.00 26 1016.4
20260509152306 71 146 3.0 7.0 0.00 0.00 0.00 26 1016.4
20260509151804 71 88 3.0 7.0 0.00 0.00 0.00 27 1016.4
20260509151303 71 146 3.0 6.0 0.00 0.00 0.00 27 1016.4
20260509150804 71 138 3.0 7.0 0.00 0.00 0.00 27 1016.5
20260509150303 71 162 2.0 7.0 0.00 0.00 0.00 28 1016.5
20260509145803 70 107 1.0 3.0 0.00 0.00 0.00 28 1016.7
20260509145306 70 126 1.0 3.0 0.00 0.00 0.00 28 1016.7
20260509145026 69 187 1.0 4.0 0.00 0.00 0.00 28 1016.8
20260509144524 69 160 2.0 4.0 0.00 0.00 0.00 29 1016.7
20260509143755 69 184 2.0 5.0 0.00 0.00 0.00 29 1016.8
20260509143513 69 211 2.0 5.0 0.00 0.00 0.00 29 1016.7
20260509142743 69 181 1.0 4.0 0.00 0.00 0.00 30 1016.7
20260509142241 68 300 1.0 3.0 0.00 0.00 0.00 31 1016.7
20260509141742 67 205 1.0 4.0 0.00 0.00 0.00 31 1016.7
20260509141239 67 217 2.0 4.0 0.00 0.00 0.00 31 1016.7
20260509140739 67 250 1.0 3.0 0.00 0.00 0.00 31 1016.5
20260509140239 67 246 1.0 3.0 0.00 0.00 0.00 31 1016.5
20260509135737 67 195 1.0 3.0 0.00 0.00 0.00 31 1016.5
20260509135234 67 331 0.0 2.0 0.00 0.00 0.00 32 1016.5
20260509135218 67 331 0.0 1.0 0.00 0.00 0.00 33 1016.4
20260509134235 67 331 0.0 1.0 0.00 0.00 0.00 34 1016.3
20260509133734 66 331 0.0 1.0 0.00 0.00 0.00 35 1016.3
20260509133235 65 331 0.0 2.0 0.00 0.00 0.00 35 1016.1
20260509132733 64 331 0.0 2.0 0.00 0.00 0.00 36 1016.0
20260509132233 64 331 0.0 1.0 0.00 0.00 0.00 37 1015.9
20260509131731 63 331 0.0 0.0 0.00 0.00 0.00 38 1015.8
20260509131456 62 331 0.0 0.0 0.00 0.00 0.00 39 1015.8
20260509130730 61 331 0.0 0.0 0.00 0.00 0.00 40 1015.6
20260509130230 60 331 0.0 1.0 0.00 0.00 0.00 40 1015.5
20260509125732 60 331 0.0 1.0 0.00 0.00 0.00 41 1015.6
20260509125229 59 331 0.0 2.0 0.00 0.00 0.00 42 1015.5
20260509124724 58 331 0.0 2.0 0.00 0.00 0.00 42 1015.5
20260509124218 58 331 0.0 2.0 0.00 0.00 0.00 42 1015.5
20260509123712 58 331 0.0 2.0 0.00 0.00 0.00 42 1015.4
20260509123429 58 331 0.0 0.0 0.00 0.00 0.00 42 1015.4
20260509122928 58 229 0.0 0.0 0.00 0.00 0.00 42 1015.3
20260509122421 58 227 0.0 0.0 0.00 0.00 0.00 42 1015.1
20260509121923 58 227 0.0 0.0 0.00 0.00 0.00 42 1015.0
20260509121202 59 227 0.0 0.0 0.00 0.00 0.00 42 1015.0
20260509120702 59 227 0.0 0.0 0.00 0.00 0.00 41 1015.0
20260509120203 60 225 0.0 0.0 0.00 0.00 0.00 41 1014.9
20260509115702 60 225 1.0 2.0 0.00 0.00 0.00 40 1014.9
20260509115203 60 225 1.0 2.0 0.00 0.00 0.00 40 1014.7
20260509114702 60 227 0.0 2.0 0.00 0.00 0.00 40 1014.5
20260509114203 60 227 1.0 3.0 0.00 0.00 0.00 39 1014.6
20260509113704 61 227 1.0 3.0 0.00 0.00 0.00 39 1014.5
20260509113203 61 193 1.0 3.0 0.00 0.00 0.00 39 1014.5
20260509112702 61 211 1.0 2.0 0.00 0.00 0.00 39 1014.5
20260509112203 61 211 1.0 3.0 0.00 0.00 0.00 38 1014.6
20260509111704 61 211 2.0 3.0 0.00 0.00 0.00 38 1014.6
20260509111203 61 213 3.0 4.0 0.00 0.00 0.00 38 1014.5
20260509110702 61 195 2.0 4.0 0.00 0.00 0.00 38 1014.4
20260509110159 62 192 1.0 4.0 0.00 0.00 0.00 38 1014.5
20260509105654 62 215 1.0 3.0 0.00 0.00 0.00 38 1014.4
20260509105155 62 217 2.0 5.0 0.00 0.00 0.00 38 1014.5
20260509104655 62 207 3.0 5.0 0.00 0.00 0.00 37 1014.4
20260509104155 62 219 2.0 5.0 0.00 0.00 0.00 37 1014.4
20260509103656 62 212 1.0 3.0 0.00 0.00 0.00 37 1014.5
20260509103155 63 213 1.0 3.0 0.00 0.00 0.00 37 1014.5
20260509102654 63 188 2.0 4.0 0.00 0.00 0.00 36 1014.4
20260509102155 63 195 2.0 5.0 0.00 0.00 0.00 36 1014.4
20260509101653 63 183 1.0 5.0 0.00 0.00 0.00 36 1014.4
20260509101150 63 194 1.0 4.0 0.00 0.00 0.00 36 1014.5
20260509100649 64 203 2.0 4.0 0.00 0.00 0.00 36 1014.4
20260509100405 64 215 2.0 4.0 0.00 0.00 0.00 35 1014.4
20260509095648 64 203 2.0 4.0 0.00 0.00 0.00 35 1014.3
20260509095148 64 216 2.0 3.0 0.00 0.00 0.00 35 1014.3
20260509094649 64 221 2.0 6.0 0.00 0.00 0.00 35 1014.4
20260509094147 64 166 3.0 6.0 0.00 0.00 0.00 34 1014.4
20260509093646 65 159 3.0 6.0 0.00 0.00 0.00 34 1014.3
20260509093147 65 164 4.0 6.0 0.00 0.00 0.00 34 1014.3
20260509092647 65 156 4.0 7.0 0.00 0.00 0.00 34 1014.2
20260509092140 65 205 4.0 7.0 0.00 0.00 0.00 34 1014.2
20260509091633 65 215 4.0 7.0 0.00 0.00 0.00 34 1014.2
20260509091133 65 221 4.0 7.0 0.00 0.00 0.00 34 1014.3
20260509090634 65 190 4.0 6.0 0.00 0.00 0.00 34 1014.2
20260509090133 65 232 4.0 6.0 0.00 0.00 0.00 34 1014.3
20260509085633 65 200 3.0 6.0 0.00 0.00 0.00 34 1014.3
20260509085131 65 206 4.0 9.0 0.00 0.00 0.00 34 1014.3
20260509084630 65 184 5.0 9.0 0.00 0.00 0.00 33 1014.3
20260509084130 65 227 5.0 8.0 0.00 0.00 0.00 33 1014.3
20260509083630 66 204 4.0 8.0 0.00 0.00 0.00 33 1014.3
20260509083351 66 211 5.0 9.0 0.00 0.00 0.00 33 1014.3
20260509082631 66 179 5.0 9.0 0.00 0.00 0.00 32 1014.3
20260509082131 66 158 5.0 8.0 0.00 0.00 0.00 32 1014.2
20260509081630 67 186 5.0 9.0 0.00 0.00 0.00 32 1014.2
20260509081351 67 197 5.0 9.0 0.00 0.00 0.00 32 1014.2
20260509080631 67 167 5.0 9.0 0.00 0.00 0.00 31 1014.3
20260509080130 67 179 6.0 9.0 0.00 0.00 0.00 31 1014.3
20260509075630 67 171 6.0 10.0 0.00 0.00 0.00 31 1014.3
20260509075354 67 186 6.0 10.0 0.00 0.00 0.00 31 1014.3
20260509074631 67 180 5.0 10.0 0.00 0.00 0.00 31 1014.5
20260509074133 68 172 5.0 8.0 0.00 0.00 0.00 31 1014.4
20260509073631 68 171 4.0 8.0 0.00 0.00 0.00 30 1014.5
20260509073130 68 171 4.0 8.0 0.00 0.00 0.00 30 1014.5
20260509072633 68 173 4.0 8.0 0.00 0.00 0.00 30 1014.4
20260509072130 68 229 5.0 10.0 0.00 0.00 0.00 30 1014.5
20260509071630 69 180 5.0 10.0 0.00 0.00 0.00 29 1014.4
20260509071131 69 193 4.0 7.0 0.00 0.00 0.00 29 1014.4
20260509070631 69 183 4.0 9.0 0.00 0.00 0.00 29 1014.4
20260509070131 69 196 4.0 9.0 0.00 0.00 0.00 29 1014.4
20260509065630 69 202 4.0 8.0 0.00 0.00 0.00 28 1014.5